GFSGL_925_thetae_000.txt.gz
Theta_e
318 316 317 317 319 320 320 318 320 323 324 320 324 323 323 321 321 322 324 322 322 320 319 320 323 320 319 317 316 315 316 318 314 316 317 315 315 317 317 319 318 316 313
320 319 320 318 316 318 319 319 320 322 323 321 324 321 321 321 321 322 323 323 323 323 324 320 322 319 312 315 323 323 321 319 318 321 321 321 321 319 314 314 311 308 309
320 319 319 318 317 317 317 319 319 320 321 320 321 322 322 322 322 322 321 322 322 322 322 322 322 323 321 320 320 320 321 321 319 321 315 314 310 310 310 307 307 308 308
320 319 319 317 317 317 317 317 318 319 320 320 320 322 321 321 321 321 321 321 321 321 321 321 320 321 321 320 319 319 317 321 322 319 312 309 309 308 308 307 306 305 301
320 320 319 315 316 317 318 317 316 316 318 319 319 320 320 321 321 321 321 320 320 318 316 317 318 316 317 318 319 318 315 322 318 316 311 309 307 305 304 304 304 302 301
321 322 319 315 315 316 317 317 315 314 315 317 318 318 318 318 318 317 316 315 314 312 310 310 311 311 309 306 313 314 314 316 316 313 309 308 304 301 301 303 300 300 303
322 323 321 317 314 316 316 316 315 314 313 313 315 316 315 315 314 311 309 308 307 305 304 302 301 300 299 302 308 313 312 314 315 316 312 308 303 298 300 301 299 300 300
322 323 322 320 315 314 315 315 315 315 314 314 313 314 314 316 316 313 309 304 300 299 299 299 299 298 298 299 301 304 309 309 309 309 308 305 298 296 298 299 298 299 301
323 323 323 322 318 314 315 314 314 312 312 311 312 313 314 315 315 314 312 309 306 304 304 303 302 301 299 297 297 298 301 304 303 299 297 295 294 295 297 298 298 299 298
323 323 322 323 319 315 314 314 314 313 312 309 307 311 312 312 313 312 312 311 308 307 307 307 306 304 304 301 298 297 297 298 297 295 294 294 294 295 297 298 297 298 298
322 322 323 324 322 317 316 315 315 315 314 313 309 306 306 307 308 309 310 310 308 307 307 307 307 306 304 303 300 296 296 296 295 294 293 294 294 295 294 295 295 295 297
323 324 324 323 324 321 319 319 317 316 316 315 315 313 310 307 304 305 307 308 307 307 306 306 305 305 305 303 302 300 297 294 293 293 293 294 295 296 297 298 297 296 296
323 324 324 324 324 325 323 322 321 318 316 316 316 316 315 315 313 310 304 305 306 308 307 307 306 305 303 302 300 301 301 300 297 294 295 297 297 298 298 299 298 297 297
322 322 324 324 325 326 325 323 323 322 320 318 317 317 316 315 315 315 315 312 304 304 307 309 309 308 305 302 301 299 299 301 301 302 300 299 299 300 300 301 299 298 297
321 321 320 322 324 325 325 325 324 322 321 321 320 319 318 317 317 317 316 316 316 313 304 305 308 307 306 303 300 298 297 299 301 302 301 300 299 300 300 300 298 298 297
320 320 320 319 322 324 325 325 325 323 323 322 322 322 322 320 320 320 320 320 319 317 314 305 303 304 305 305 303 300 297 296 298 301 300 299 298 298 298 299 300 297 297
320 320 320 320 321 323 325 325 325 326 326 326 325 324 324 323 323 323 323 320 318 318 315 310 305 302 301 301 302 301 299 297 295 296 297 297 297 297 298 299 298 297 294
322 322 322 322 323 325 325 326 326 326 326 327 328 329 328 326 324 322 323 320 317 313 313 313 309 306 304 302 300 300 299 296 294 292 292 293 297 298 299 299 297 296 294
322 323 323 325 326 328 327 328 328 328 328 329 330 330 329 328 329 329 328 324 316 312 309 310 312 310 305 303 301 299 298 297 295 293 292 293 297 298 298 298 299 295 294
325 324 324 324 325 327 329 328 328 329 329 328 327 324 324 325 322 324 325 318 317 317 315 311 308 305 303 302 301 300 298 296 295 294 294 294 296 297 298 299 297 293 294
326 327 326 326 326 326 326 325 324 324 325 325 325 325 323 322 322 320 317 315 312 311 309 306 304 303 301 300 300 299 298 297 297 296 295 296 297 298 299 299 296 294 294
326 327 327 326 324 323 321 319 318 317 316 317 315 311 311 313 312 310 308 307 306 306 305 304 303 302 301 300 299 299 299 299 298 297 296 297 298 299 299 297 296 295 293
325 324 324 324 324 322 321 321 320 320 319 316 309 307 308 308 307 307 306 306 305 305 304 302 302 302 301 301 300 298 298 298 299 298 298 298 299 298 298 296 295 294 293
322 323 321 321 322 322 321 317 316 316 312 309 307 308 308 308 307 306 305 305 305 304 304 304 301 300 300 300 299 299 299 299 299 298 298 298 298 297 297 296 294 293 292
323 319 318 316 314 313 312 312 311 311 310 310 310 309 307 305 304 304 304 304 304 303 301 301 300 299 298 298 298 296 296 296 295 296 296 296 296 295 296 295 293 292 292
318 315 312 311 310 308 307 306 305 304 303 303 303 303 302 302 301 300 300 300 300 299 299 299 299 299 298 297 296 295 295 295 295 295 295 295 295 294 292 292 292 292 292

GFSGL_925_thetae_003.txt.gz
Theta_e
318 319 319 320 320 317 319 321 319 320 321 322 320 321 322 325 327 328 328 327 328 327 326 326 327 327 327 325 322 314 309 312 312 314 315 314 315 316 315 316 318 316 313
315 316 316 318 319 318 318 321 322 320 322 321 320 320 320 322 326 327 325 326 326 324 323 323 323 323 321 323 319 314 312 314 316 318 316 318 318 317 317 317 315 311 308
318 319 318 315 317 318 318 320 322 320 322 320 320 320 320 321 321 320 320 320 319 318 317 316 314 315 315 318 320 321 317 317 318 317 317 317 310 310 311 310 309 306 305
320 319 318 316 315 316 318 319 320 320 320 320 320 321 321 320 320 320 321 321 321 321 322 322 320 321 322 320 319 320 321 319 319 318 315 310 309 307 307 308 308 307 304
320 319 318 316 316 316 316 318 319 319 319 320 321 319 319 319 319 319 319 319 319 319 319 319 320 319 319 318 318 318 318 320 320 316 311 308 308 307 307 306 305 302 301
320 319 318 315 315 316 316 315 317 318 318 319 319 320 320 320 319 318 318 317 317 316 314 315 315 314 314 315 316 317 317 317 318 313 311 310 309 307 305 304 303 302 301
320 320 318 314 315 316 316 314 314 315 316 317 317 318 317 317 315 314 312 312 311 309 308 308 309 309 306 305 311 312 314 316 317 318 317 316 313 311 305 301 300 299 301
320 320 319 314 314 315 316 315 313 313 313 314 315 315 314 314 312 310 307 305 304 303 301 300 300 299 299 301 305 309 311 313 313 313 312 311 310 305 301 300 299 299 300
320 321 320 316 313 315 315 315 314 313 312 312 312 313 313 312 313 311 308 304 301 300 299 299 299 299 299 298 299 300 302 307 308 308 306 303 300 297 297 299 298 299 299
320 321 321 318 315 314 315 315 315 314 313 313 312 312 311 311 311 310 309 309 308 306 305 305 304 303 302 301 299 299 298 299 301 301 299 296 295 295 296 298 298 298 298
318 320 321 319 318 313 315 314 314 313 311 310 308 309 311 311 311 311 311 310 310 309 308 308 309 308 306 304 304 302 299 297 297 297 295 294 294 295 296 297 297 297 297
318 320 321 320 320 315 313 314 314 313 312 311 309 306 308 310 310 310 310 309 310 310 309 309 308 307 307 306 305 304 301 297 295 295 294 293 294 294 295 295 295 295 295
318 320 321 320 321 319 314 314 314 315 314 314 314 313 311 309 307 306 307 307 309 309 309 308 307 306 306 305 306 305 303 300 297 293 293 293 293 294 295 297 298 298 297
319 320 321 321 322 323 320 316 316 316 316 316 315 315 315 315 315 314 311 308 305 306 307 308 308 307 307 305 304 303 302 301 300 300 299 297 294 295 297 298 298 298 298
319 320 321 322 322 323 324 321 319 319 319 318 317 317 316 316 317 316 315 315 314 311 307 305 304 305 306 307 307 304 302 301 299 299 300 301 301 299 298 299 300 300 299
320 320 321 321 322 323 323 324 323 320 319 320 320 319 319 318 318 317 317 317 317 317 315 312 307 304 303 303 305 306 306 303 301 298 298 299 300 301 301 300 299 298 299
320 320 319 320 321 322 323 323 323 324 324 323 321 322 321 320 320 321 321 320 320 318 317 316 313 311 311 310 310 306 302 302 302 299 297 296 297 299 299 297 297 299 299
319 319 320 319 320 321 322 322 323 323 322 323 324 324 325 324 323 323 323 323 321 319 318 318 314 314 314 311 309 307 305 301 298 296 296 295 295 296 297 297 297 298 298
318 318 319 318 318 320 320 321 322 322 322 322 323 323 324 325 325 324 322 322 324 322 316 316 313 310 310 309 308 304 301 300 298 296 295 293 292 292 295 296 297 298 298
318 319 318 319 319 320 321 321 322 323 324 325 324 322 320 319 319 319 319 318 315 314 313 313 309 308 306 303 301 300 299 298 298 297 297 296 294 294 295 297 297 298 298
319 320 320 321 322 322 323 324 324 325 324 320 317 316 318 317 314 314 313 311 309 309 307 304 303 302 301 301 300 299 299 298 298 298 297 297 296 295 296 296 298 299 298
321 321 321 322 323 324 324 323 322 318 314 311 308 308 308 307 306 305 304 304 303 303 302 302 302 301 300 300 300 299 299 298 299 299 299 298 297 296 296 296 298 298 298
323 323 321 320 320 319 318 319 318 315 311 309 309 308 308 306 305 305 304 304 304 304 304 303 302 301 300 299 299 298 298 298 297 297 298 298 298 297 297 298 299 298 295
322 320 319 318 317 316 315 315 315 315 311 309 308 304 304 304 304 304 304 303 302 301 300 300 299 299 299 299 299 298 296 296 295 295 295 296 297 297 296 296 296 296 296
323 322 322 320 319 316 313 309 307 306 305 304 303 303 303 303 302 302 301 299 299 299 299 299 298 298 297 296 296 296 295 295 295 295 295 295 295 295 295 294 295 293 292
320 318 317 315 312 309 307 305 304 303 302 302 302 301 300 299 299 299 298 298 298 298 298 298 297 297 297 296 296 296 296 294 294 294 293 294 294 294 293 292 292 291 291

GFSGL_925_thetae_006.txt.gz
Theta_e
318 319 319 319 317 318 320 319 322 322 322 322 324 326 327 328 328 328 328 328 328 327 328 328 326 326 326 326 323 315 310 307 312 312 312 313 314 315 315 315 319 319 315
317 318 319 319 318 317 320 319 321 321 320 320 323 326 326 327 327 327 326 324 324 326 326 326 326 326 326 324 321 314 309 309 313 316 314 315 315 315 316 317 316 312 309
314 316 316 318 318 317 319 320 320 321 320 320 320 323 325 326 326 326 326 323 322 321 322 322 323 323 322 321 320 314 315 312 314 314 315 315 315 316 316 315 310 306 303
317 317 317 315 317 317 318 320 320 321 320 320 320 320 320 319 318 317 317 316 317 317 315 316 316 316 317 318 319 320 316 315 316 315 316 314 312 311 311 310 305 304 303
319 318 318 316 315 316 317 319 320 319 320 320 320 320 320 320 320 321 321 321 321 321 319 315 316 321 319 319 319 320 318 317 318 315 314 311 308 307 308 309 306 306 304
320 319 318 315 315 315 316 317 319 318 320 320 319 319 319 319 318 318 318 319 319 320 320 319 319 318 318 318 317 317 318 319 319 315 312 312 311 309 308 307 307 303 302
320 319 318 315 315 316 316 315 317 318 318 319 319 319 319 318 317 316 316 315 315 314 314 314 315 314 312 312 313 314 316 318 317 317 317 315 314 314 310 307 305 303 301
319 319 318 314 315 315 315 314 314 316 317 317 318 317 316 315 314 310 309 309 309 307 306 306 306 306 304 303 308 310 312 314 315 315 315 315 315 313 312 309 306 302 300
318 320 319 315 314 314 315 315 313 313 314 314 315 314 314 313 311 309 307 304 303 301 299 298 298 299 299 299 301 303 307 309 311 311 310 308 306 307 303 302 299 298 300
317 320 319 318 313 314 315 315 313 312 312 311 311 312 312 312 313 311 309 305 302 301 302 302 301 302 300 299 298 299 299 299 300 300 301 301 299 297 296 298 298 298 298
316 319 319 320 315 312 315 315 314 314 313 312 312 311 311 312 312 312 311 310 310 309 309 309 308 307 305 305 304 304 304 301 299 298 297 297 296 295 296 296 297 297 297
316 318 319 320 317 314 313 314 314 313 312 311 309 308 308 309 310 310 310 310 310 310 311 310 309 308 307 307 307 307 306 304 302 298 296 296 296 295 295 295 296 297 297
316 317 318 319 319 316 314 313 314 313 312 311 310 309 309 309 310 310 310 310 309 310 310 310 310 309 309 307 306 306 305 305 304 302 300 298 296 295 294 294 294 295 296
317 317 318 319 320 318 317 312 313 313 313 313 312 312 314 314 313 311 311 309 308 308 308 309 308 308 308 308 307 307 306 304 304 303 302 301 299 298 295 293 294 295 296
317 318 318 319 319 319 319 316 313 313 314 315 315 316 315 315 317 316 315 314 313 311 309 307 307 306 306 306 307 306 306 305 303 302 300 300 299 298 298 298 295 296 297
317 317 318 319 320 320 320 320 318 315 315 316 317 318 317 317 317 317 317 317 317 316 315 314 311 309 309 310 310 307 306 305 304 302 301 299 298 298 297 297 298 297 298
317 318 318 319 319 320 321 321 321 320 319 317 317 317 317 318 318 318 318 319 318 318 316 315 314 314 316 315 314 311 308 309 304 301 298 297 297 296 296 297 297 297 297
318 318 318 319 319 320 321 321 321 321 321 322 322 322 322 322 321 320 320 320 318 315 316 315 315 314 314 313 310 309 308 305 300 298 297 296 295 293 294 295 295 296 297
318 318 319 319 319 320 320 321 321 322 322 322 320 318 319 321 321 320 314 315 317 315 315 316 312 311 311 308 304 302 299 298 298 298 297 296 295 293 293 293 294 295 296
318 319 319 319 318 319 319 320 321 321 321 321 320 319 318 318 317 316 314 314 315 314 312 310 308 304 302 300 299 299 298 298 297 297 297 297 297 296 295 295 295 296 296
317 318 319 319 317 318 319 319 319 320 320 319 317 317 317 317 310 305 304 303 304 303 301 300 300 300 299 299 299 298 298 298 298 298 298 298 298 298 297 296 296 297 296
317 317 317 317 317 317 318 319 319 319 314 311 307 305 306 306 306 307 307 306 305 302 302 300 299 298 299 298 298 298 297 297 297 296 296 296 297 297 297 296 296 296 296
317 317 317 318 319 319 319 317 313 308 305 305 305 306 308 307 306 305 304 305 303 303 301 299 298 298 297 297 297 297 296 296 295 295 295 295 296 296 296 296 296 296 295
319 319 318 316 316 314 311 309 308 307 307 307 307 308 307 305 302 299 298 298 298 298 298 298 298 297 297 297 297 296 295 295 295 294 294 295 295 295 294 294 294 293 293
319 317 316 316 315 313 311 310 310 310 308 307 304 301 299 297 298 299 299 299 298 298 297 297 296 295 294 294 294 295 296 296 295 295 294 294 294 294 294 293 292 292 292
318 318 318 318 317 315 311 307 305 303 301 301 300 300 300 300 299 298 298 297 297 296 295 295 294 294 294 294 293 293 293 294 294 295 294 294 293 293 292 292 292 291 291

GFSGL_925_thetae_009.txt.gz
Theta_e
319 319 319 317 317 319 319 322 322 321 321 322 324 325 328 329 328 327 329 329 330 329 328 329 328 327 326 323 320 317 315 314 314 315 313 315 316 318 317 317 315 317 313
319 319 319 319 316 320 319 321 320 320 322 324 325 325 326 328 328 328 328 328 329 328 327 327 327 326 325 324 321 314 312 312 315 316 316 317 318 319 318 315 318 316 312
317 318 317 318 317 319 319 320 320 320 320 323 325 325 325 326 326 323 324 327 327 327 327 327 326 326 325 323 322 315 316 316 318 317 317 315 314 315 316 315 313 311 308
317 318 317 317 317 317 320 320 320 320 320 319 322 324 323 322 321 319 321 321 322 323 325 325 325 325 324 322 318 317 315 318 319 318 316 316 315 313 316 314 311 309 308
319 320 319 314 316 317 319 320 320 320 320 320 320 319 319 318 318 317 317 317 315 317 317 316 316 317 317 318 321 319 315 319 318 318 318 316 315 314 316 315 314 310 308
321 321 320 315 314 316 317 319 319 319 320 320 319 319 319 319 320 320 321 321 320 316 314 317 320 319 318 318 318 319 317 321 321 319 319 318 318 316 315 314 313 310 311
322 321 320 316 316 316 316 317 318 319 320 319 319 319 319 318 318 317 317 318 319 319 319 319 318 318 318 318 317 317 317 318 319 320 321 319 320 316 314 313 313 312 313
322 321 320 317 316 317 316 317 317 318 319 319 319 319 318 317 316 314 313 313 313 313 313 314 314 314 312 310 310 312 313 315 315 316 316 319 316 316 314 314 314 312 309
322 321 320 317 316 317 317 315 315 316 317 317 317 317 316 314 312 308 306 308 307 306 306 306 305 304 302 303 307 309 309 310 312 314 314 315 314 313 312 310 309 308 308
321 321 321 318 316 317 318 315 313 314 315 315 315 314 313 313 311 308 306 304 303 302 299 299 299 299 300 300 301 301 305 305 302 302 303 304 305 304 304 304 306 305 304
320 320 321 319 316 316 315 315 314 312 313 311 311 311 311 312 311 311 309 305 306 304 305 304 303 302 303 303 303 304 304 304 301 299 300 300 299 298 297 297 299 302 302
320 320 322 321 316 316 315 315 314 314 314 314 314 314 312 311 311 311 312 311 310 313 313 312 309 307 307 307 307 307 307 305 304 303 303 302 301 301 301 301 297 297 300
320 321 322 322 319 315 316 316 317 316 315 315 314 313 312 309 310 310 311 312 312 312 314 312 310 310 310 309 308 307 306 305 306 306 306 305 303 302 300 299 297 298 299
320 322 322 323 322 319 316 316 316 317 316 315 314 314 314 313 310 309 310 310 310 310 310 309 309 309 309 309 308 307 306 307 306 306 306 305 303 301 300 300 299 299 299
321 322 322 322 322 321 319 316 315 316 316 316 316 316 318 318 318 316 313 312 312 312 311 310 309 309 309 310 310 308 307 306 305 304 304 304 303 303 303 302 301 299 299
321 321 322 321 322 321 320 319 315 314 313 314 314 317 318 317 317 317 316 316 317 317 317 314 314 312 312 314 314 314 312 308 307 306 305 304 303 302 301 301 300 300 301
321 321 321 322 322 321 321 320 319 317 315 313 313 313 314 314 316 316 316 318 319 318 314 313 312 312 313 314 314 312 311 309 304 303 301 299 298 299 298 299 299 300 300
320 320 321 321 322 322 322 322 321 321 322 320 318 317 316 317 317 316 317 318 318 317 314 314 316 317 315 313 311 307 305 301 299 300 298 299 298 298 298 299 299 299 299
320 320 320 321 321 322 322 322 322 322 322 323 320 318 320 321 320 318 316 318 320 317 315 313 311 310 308 302 301 300 298 299 298 298 298 299 299 299 299 300 300 298 298
321 320 320 321 321 322 322 322 323 323 323 323 323 319 316 318 316 313 314 315 314 313 310 306 303 301 300 300 300 298 299 299 299 300 300 300 300 300 300 300 300 300 300
321 320 319 322 322 322 321 322 322 323 323 324 320 317 317 317 314 313 311 307 305 302 300 301 302 302 302 299 299 299 299 299 299 299 299 299 299 300 300 299 299 300 299
320 320 320 321 322 322 321 322 323 323 320 316 311 312 312 309 305 304 303 303 305 304 304 303 301 302 300 299 298 298 297 297 297 297 298 298 298 299 299 299 298 297 297
320 320 321 321 321 321 321 321 319 318 315 311 309 309 309 308 306 304 303 304 304 305 301 299 297 298 298 297 296 296 296 296 296 296 297 297 298 297 297 297 295 295 294
320 320 321 321 319 320 318 316 314 312 311 310 310 309 306 304 303 304 304 301 299 297 297 297 297 296 295 295 295 295 295 295 296 296 296 296 296 296 296 295 295 293 293
321 320 320 318 317 314 312 311 310 311 309 306 304 303 302 302 300 299 298 299 297 297 295 294 294 294 294 294 294 294 294 294 294 294 295 295 295 294 294 293 293 293 292
320 319 317 316 314 314 312 310 308 306 304 303 303 300 300 300 299 297 297 297 296 294 294 294 294 293 293 293 294 294 294 294 294 293 294 294 294 294 294 293 293 292 290